When you browse on this site, cookies collect data to enhance your experience and personalize the content and advertising you see.
Visit our Privacy Policy to learn more. By continuing to use the site, you agree to this use of cookies and data.
  • In Austria
  • List of Countries
  • For 7 days
  • Water Temperature
  • Satellite Maps
  • Weather Map
  • News
  • Weather Widgets
  • user-avatar
    Login

    Hourly Weather Miyadzaki

    Today, 21 February, Thursday

    Time Temperature Precipitation Wind Pressure Humidity
    00:00 +10°C° 0 mm 1 mps 758 mmHg 72%
    01:00 +10°C° 0 mm 1 mps 758 mmHg 72%
    02:00 +10°C° 0 mm 1 mps 758 mmHg 72%
    03:00 +11°C° 0 mm 1 mps 757 mmHg 73%
    04:00 +11°C° 0 mm 1 mps 757 mmHg 74%
    05:00 +10°C° 0 mm 1 mps 758 mmHg 75%
    06:00 +10°C° 0 mm 1 mps 758 mmHg 76%
    07:00 +11°C° 0 mm 1 mps 758 mmHg 73%
    08:00 +12°C° 0 mm 1 mps 758 mmHg 70%
    09:00 +13°C° 0 mm 2 mps 758 mmHg 65%
    10:00 +15°C° 0 mm 2 mps 758 mmHg 62%
    11:00 +16°C° 0 mm 2 mps 758 mmHg 58%
    12:00 +17°C° 0 mm 3 mps 757 mmHg 55%
    13:00 +17°C° 0 mm 3 mps 757 mmHg 56%
    14:00 +17°C° 0 mm 3 mps 757 mmHg 57%
    15:00 +17°C° 0 mm 3 mps 757 mmHg 59%
    16:00 +14°C° 0 mm 3 mps 757 mmHg 66%
    17:00 +13°C° 0 mm 3 mps 757 mmHg 73%
    18:00 +12°C° 0 mm 3 mps 757 mmHg 80%
    19:00 +12°C° 0 mm 3 mps 757 mmHg 81%
    20:00 +11°C° 0 mm 3 mps 757 mmHg 83%
    21:00 +11°C° 0 mm 3 mps 757 mmHg 84%
    22:00 +11°C° 0 mm 3 mps 757 mmHg 84%
    23:00 +12°C° 0 mm 2 mps 757 mmHg 83%

    Tomorrow, 22 February, Friday

    Time Temperature Precipitation Wind Pressure Humidity
    00:00 +12°C° 0 mm 2 mps 757 mmHg 83%
    01:00 +12°C° 0.2 mm 2 mps 757 mmHg 85%
    02:00 +10°C° 0.2 mm 2 mps 756 mmHg 87%
    03:00 +10°C° 0.2 mm 2 mps 756 mmHg 89%
    04:00 +10°C° 0.6 mm 2 mps 756 mmHg 90%
    05:00 +10°C° 0.6 mm 2 mps 755 mmHg 92%
    06:00 +10°C° 0.6 mm 2 mps 755 mmHg 94%
    07:00 +10°C° 0.7 mm 2 mps 755 mmHg 94%
    08:00 +10°C° 0.7 mm 2 mps 755 mmHg 93%
    09:00 +12°C° 0.7 mm 2 mps 755 mmHg 93%
    10:00 +11°C° 0.7 mm 3 mps 755 mmHg 92%
    11:00 +11°C° 0.7 mm 3 mps 754 mmHg 92%
    12:00 +12°C° 0.7 mm 3 mps 754 mmHg 91%
    13:00 +12°C° 1.5 mm 3 mps 753 mmHg 92%
    14:00 +13°C° 1.5 mm 2 mps 752 mmHg 93%
    15:00 +13°C° 1.5 mm 2 mps 752 mmHg 94%
    16:00 +13°C° 1.1 mm 2 mps 751 mmHg 94%
    17:00 +12°C° 1.1 mm 2 mps 751 mmHg 95%
    18:00 +12°C° 1.1 mm 2 mps 751 mmHg 96%
    19:00 +12°C° 0.7 mm 2 mps 752 mmHg 96%
    20:00 +12°C° 0.7 mm 2 mps 752 mmHg 95%
    21:00 +12°C° 0.7 mm 2 mps 752 mmHg 95%
    22:00 +10°C° 0.2 mm 2 mps 752 mmHg 95%
    23:00 +10°C° 0.2 mm 3 mps 752 mmHg 96%

    Day after tomorrow, 23 February, Saturday

    Time Temperature Precipitation Wind Pressure Humidity
    00:00 +9°C° 0.2 mm 3 mps 753 mmHg 96%
    01:00 +9°C° 0.1 mm 3 mps 752 mmHg 96%
    02:00 +9°C° 0.1 mm 2 mps 752 mmHg 96%
    03:00 +9°C° 0.1 mm 2 mps 752 mmHg 96%
    04:00 +8°C° 0 mm 2 mps 753 mmHg 96%
    05:00 +7°C° 0 mm 2 mps 753 mmHg 95%
    06:00 +7°C° 0 mm 2 mps 753 mmHg 95%
    07:00 +8°C° 0 mm 2 mps 753 mmHg 91%
    08:00 +9°C° 0 mm 2 mps 754 mmHg 86%
    09:00 +10°C° 0 mm 2 mps 754 mmHg 82%
    10:00 +13°C° 0 mm 2 mps 754 mmHg 72%
    11:00 +15°C° 0 mm 2 mps 755 mmHg 62%
    12:00 +17°C° 0 mm 2 mps 755 mmHg 52%
    13:00 +16°C° 0 mm 2 mps 754 mmHg 53%
    14:00 +16°C° 0 mm 2 mps 754 mmHg 55%
    15:00 +14°C° 0 mm 3 mps 754 mmHg 56%
    16:00 +13°C° 0 mm 3 mps 754 mmHg 62%
    17:00 +12°C° 0 mm 4 mps 755 mmHg 67%
    18:00 +11°C° 0 mm 4 mps 755 mmHg 73%
    19:00 +11°C° 0 mm 4 mps 756 mmHg 73%
    20:00 +9°C° 0 mm 5 mps 756 mmHg 73%
    21:00 +9°C° 0 mm 5 mps 757 mmHg 73%
    22:00 +9°C° 0 mm 5 mps 757 mmHg 72%
    23:00 +8°C° 0 mm 5 mps 758 mmHg 70%

    24 February, Sunday

    Time Temperature Precipitation Wind Pressure Humidity
    00:00 +8°C° 0 mm 5 mps 758 mmHg 69%
    01:00 +7°C° 0 mm 5 mps 758 mmHg 70%
    02:00 +7°C° 0 mm 4 mps 758 mmHg 70%
    03:00 +6°C° 0 mm 4 mps 758 mmHg 70%
    04:00 +6°C° 0 mm 4 mps 758 mmHg 72%
    05:00 +6°C° 0 mm 4 mps 758 mmHg 74%
    06:00 +5°C° 0 mm 4 mps 758 mmHg 75%
    07:00 +7°C° 0 mm 4 mps 759 mmHg 71%
    08:00 +8°C° 0 mm 4 mps 759 mmHg 66%
    09:00 +10°C° 0 mm 4 mps 760 mmHg 62%
    10:00 +11°C° 0 mm 4 mps 759 mmHg 58%
    11:00 +13°C° 0 mm 4 mps 759 mmHg 54%
    12:00 +14°C° 0 mm 3 mps 759 mmHg 50%
    13:00 +14°C° 0 mm 3 mps 758 mmHg 51%
    14:00 +14°C° 0 mm 3 mps 758 mmHg 52%
    15:00 +14°C° 0 mm 3 mps 757 mmHg 53%
    16:00 +12°C° 0 mm 3 mps 758 mmHg 60%
    17:00 +12°C° 0 mm 2 mps 758 mmHg 67%
    18:00 +10°C° 0 mm 2 mps 758 mmHg 74%
    19:00 +9°C° 0 mm 2 mps 758 mmHg 76%
    20:00 +9°C° 0 mm 2 mps 758 mmHg 78%
    21:00 +8°C° 0 mm 2 mps 759 mmHg 80%
    22:00 +8°C° 0 mm 2 mps 758 mmHg 80%
    23:00 +8°C° 0 mm 2 mps 758 mmHg 80%

    25 February, Monday

    Time Temperature Precipitation Wind Pressure Humidity
    00:00 +8°C° 0 mm 2 mps 758 mmHg 81%
    01:00 +8°C° 0 mm 2 mps 758 mmHg 81%
    02:00 +9°C° 0 mm 2 mps 757 mmHg 81%
    03:00 +9°C° 0 mm 2 mps 757 mmHg 80%
    04:00 +9°C° 0 mm 2 mps 757 mmHg 81%
    05:00 +9°C° 0 mm 2 mps 757 mmHg 82%
    06:00 +10°C° 0 mm 1 mps 756 mmHg 83%
    07:00 +10°C° 0.2 mm 1 mps 757 mmHg 84%
    08:00 +11°C° 0.2 mm 1 mps 757 mmHg 85%
    09:00 +11°C° 0.2 mm 1 mps 758 mmHg 86%
    10:00 +12°C° 0 mm 1 mps 758 mmHg 83%
    11:00 +12°C° 0 mm 1 mps 758 mmHg 81%
    12:00 +13°C° 0 mm 1 mps 757 mmHg 78%
    13:00 +13°C° 0 mm 1 mps 757 mmHg 76%
    14:00 +14°C° 0 mm 1 mps 756 mmHg 75%
    15:00 +14°C° 0 mm 1 mps 756 mmHg 73%
    16:00 +13°C° 0 mm 1 mps 756 mmHg 75%
    17:00 +13°C° 0 mm 1 mps 756 mmHg 78%
    18:00 +12°C° 0 mm 1 mps 756 mmHg 81%
    19:00 +12°C° 0 mm 1 mps 757 mmHg 84%
    20:00 +11°C° 0 mm 1 mps 757 mmHg 87%
    21:00 +10°C° 0 mm 1 mps 758 mmHg 90%
    22:00 +10°C° 0 mm 1 mps 757 mmHg 91%
    23:00 +10°C° 0 mm 1 mps 757 mmHg 91%

    26 February, Tuesday

    Time Temperature Precipitation Wind Pressure Humidity
    00:00 +10°C° 0 mm 1 mps 757 mmHg 92%
    01:00 +10°C° 0 mm 1 mps 757 mmHg 92%
    02:00 +10°C° 0 mm 1 mps 757 mmHg 91%
    03:00 +10°C° 0 mm 1 mps 757 mmHg 91%
    04:00 +11°C° 0 mm 1 mps 757 mmHg 90%
    05:00 +11°C° 0 mm 1 mps 757 mmHg 89%
    06:00 +10°C° 0 mm 2 mps 757 mmHg 89%
    07:00 +10°C° 0 mm 2 mps 757 mmHg 87%
    08:00 +12°C° 0 mm 2 mps 758 mmHg 85%
    09:00 +12°C° 0 mm 2 mps 758 mmHg 84%
    10:00 +13°C° 0 mm 2 mps 758 mmHg 79%
    11:00 +15°C° 0 mm 2 mps 758 mmHg 73%
    12:00 +16°C° 0 mm 2 mps 757 mmHg 68%
    13:00 +16°C° 0 mm 2 mps 757 mmHg 69%
    14:00 +15°C° 0 mm 2 mps 756 mmHg 71%
    15:00 +15°C° 0 mm 2 mps 756 mmHg 72%
    16:00 +14°C° 0 mm 2 mps 756 mmHg 74%
    17:00 +14°C° 0 mm 2 mps 756 mmHg 75%
    18:00 +13°C° 0 mm 2 mps 757 mmHg 77%
    19:00 +13°C° 0 mm 2 mps 757 mmHg 77%
    20:00 +13°C° 0 mm 2 mps 757 mmHg 78%
    21:00 +13°C° 0 mm 2 mps 757 mmHg 78%
    22:00 +12°C° 0 mm 2 mps 757 mmHg 79%
    23:00 +12°C° 0 mm 1 mps 757 mmHg 80%
    Show more